| time (UTC) | temp C | wind direction | speed KPH | gust KPH | rain 1hr cm | rain 24hr cm | rain mn cm | humidity % | barometer mb |
| 20260508173320 | 21 | 314 | 6.4 | 9.7 | 0.00 | 0.00 | 0.00 | 37 | 1021.3 |
| 20260508172740 | 21 | 9 | 4.8 | 14.5 | 0.00 | 0.00 | 0.00 | 42 | 1021.3 |
| 20260508172148 | 21 | 278 | 6.4 | 17.7 | 0.00 | 0.00 | 0.00 | 39 | 1021.3 |
| 20260508170941 | 21 | 267 | 8.0 | 14.5 | 0.00 | 0.00 | 0.00 | 43 | 1021.3 |
| 20260508170314 | 20 | 176 | 8.0 | 8.0 | 0.00 | 0.00 | 0.00 | 40 | 1021.6 |
| 20260508165709 | 20 | 154 | 1.6 | 16.1 | 0.00 | 0.00 | 0.00 | 40 | 1021.6 |
| 20260508165120 | 20 | 199 | 9.7 | 16.1 | 0.00 | 0.00 | 0.00 | 41 | 1022.0 |
| 20260508164533 | 20 | 256 | 14.5 | 14.5 | 0.00 | 0.00 | 0.00 | 41 | 1022.0 |
| 20260508163331 | 20 | 212 | 6.4 | 17.7 | 0.00 | 0.00 | 0.00 | 43 | 1022.0 |
| 20260508162723 | 20 | 183 | 9.7 | 9.7 | 0.00 | 0.00 | 0.00 | 44 | 1022.3 |
| 20260508162130 | 20 | 179 | 9.7 | 14.5 | 0.00 | 0.00 | 0.00 | 45 | 1022.3 |
| 20260508161515 | 20 | 155 | 14.5 | 14.5 | 0.00 | 0.00 | 0.00 | 45 | 1022.3 |
| 20260508160931 | 20 | 215 | 9.7 | 12.9 | 0.00 | 0.00 | 0.00 | 41 | 1022.6 |
| 20260508160338 | 20 | 163 | 4.8 | 11.3 | 0.00 | 0.00 | 0.00 | 40 | 1022.6 |
| 20260508155110 | 19 | 133 | 4.8 | 11.3 | 0.00 | 0.00 | 0.00 | 43 | 1023.0 |
| 20260508154521 | 20 | 243 | 4.8 | 6.4 | 0.00 | 0.00 | 0.00 | 45 | 1023.0 |
| 20260508153937 | 19 | 166 | 4.8 | 17.7 | 0.00 | 0.00 | 0.00 | 42 | 1023.0 |
| 20260508153342 | 18 | 313 | 9.7 | 14.5 | 0.00 | 0.00 | 0.00 | 44 | 1023.3 |
| 20260508152746 | 18 | 183 | 1.6 | 9.7 | 0.00 | 0.00 | 0.00 | 45 | 1023.3 |
| 20260508151536 | 18 | 135 | 11.3 | 11.3 | 0.00 | 0.00 | 0.00 | 44 | 1023.0 |
| 20260508150945 | 18 | 151 | 6.4 | 9.7 | 0.00 | 0.00 | 0.00 | 49 | 1023.0 |
| 20260508145746 | 17 | 144 | 4.8 | 9.7 | 0.00 | 0.00 | 0.00 | 48 | 1023.3 |
| 20260508145148 | 17 | 158 | 8.0 | 16.1 | 0.00 | 0.00 | 0.00 | 53 | 1023.3 |
| 20260508143942 | 16 | 156 | 9.7 | 11.3 | 0.00 | 0.00 | 0.00 | 50 | 1023.3 |
| 20260508142727 | 16 | 191 | 3.2 | 4.8 | 0.00 | 0.00 | 0.00 | 54 | 1023.3 |
| 20260508142149 | 15 | 145 | 9.7 | 9.7 | 0.00 | 0.00 | 0.00 | 53 | 1023.3 |
| 20260508141518 | 15 | 164 | 8.0 | 11.3 | 0.00 | 0.00 | 0.00 | 54 | 1023.3 |
| 20260508140936 | 15 | 179 | 6.4 | 9.7 | 0.00 | 0.00 | 0.00 | 57 | 1023.3 |
| 20260508135748 | 14 | 174 | 6.4 | 6.4 | 0.00 | 0.00 | 0.00 | 62 | 1023.3 |
| 20260508135146 | 14 | 152 | 4.8 | 11.3 | 0.00 | 0.00 | 0.00 | 59 | 1023.3 |
| 20260508134522 | 13 | 180 | 4.8 | 11.3 | 0.00 | 0.00 | 0.00 | 63 | 1023.3 |
| 20260508133916 | 13 | 167 | 3.2 | 11.3 | 0.00 | 0.00 | 0.00 | 63 | 1023.3 |
| 20260508133312 | 12 | 157 | 3.2 | 9.7 | 0.00 | 0.00 | 0.00 | 66 | 1023.3 |
| 20260508132726 | 12 | 158 | 4.8 | 9.7 | 0.00 | 0.00 | 0.00 | 66 | 1023.3 |
| 20260508132122 | 12 | 151 | 1.6 | 4.8 | 0.00 | 0.00 | 0.00 | 68 | 1023.7 |
| 20260508130308 | 10 | 155 | 3.2 | 9.7 | 0.00 | 0.00 | 0.00 | 74 | 1023.7 |
| 20260508125126 | 9 | 194 | 4.8 | 8.0 | 0.00 | 0.00 | 0.00 | 77 | 1023.7 |
| 20260508123936 | 8 | 145 | 3.2 | 4.8 | 0.00 | 0.00 | 0.00 | 80 | 1023.7 |
| 20260508123350 | 8 | 176 | 1.6 | 6.4 | 0.00 | 0.00 | 0.00 | 81 | 1023.7 |
| 20260508122731 | 7 | 173 | 6.4 | 6.4 | 0.00 | 0.00 | 0.00 | 82 | 1023.7 |
| 20260508122120 | 7 | 171 | 3.2 | 6.4 | 0.00 | 0.00 | 0.00 | 82 | 1023.7 |
| 20260508121538 | 7 | 153 | 3.2 | 6.4 | 0.00 | 0.00 | 0.00 | 85 | 1023.7 |
| 20260508120920 | 6 | 174 | 0.0 | 0.0 | 0.00 | 0.00 | 0.00 | 86 | 1023.7 |
| 20260508115710 | 5 | 158 | 0.0 | 0.0 | 0.00 | 0.00 | 0.00 | 92 | 1023.7 |
| 20260508115148 | 5 | 148 | 0.0 | 0.0 | 0.00 | 0.00 | 0.00 | 96 | 1023.7 |
| 20260508114519 | 4 | 169 | 0.0 | 0.0 | 0.00 | 0.00 | 0.00 | 97 | 1023.3 |
| 20260508113930 | 3 | 169 | 0.0 | 0.0 | 0.00 | 0.00 | 0.00 | 98 | 1023.3 |
| 20260508113316 | 2 | 161 | 0.0 | 0.0 | 0.00 | 0.00 | 0.00 | 98 | 1023.3 |
| 20260508112719 | 2 | 159 | 0.0 | 0.0 | 0.00 | 0.00 | 0.00 | 98 | 1023.3 |
| 20260508112143 | 2 | 172 | 0.0 | 0.0 | 0.00 | 0.00 | 0.00 | 98 | 1023.7 |
| 20260508111542 | 2 | 164 | 0.0 | 0.0 | 0.00 | 0.00 | 0.00 | 98 | 1023.3 |
| 20260508110922 | 2 | 165 | 0.0 | 0.0 | 0.00 | 0.00 | 0.00 | 97 | 1023.3 |
| 20260508110326 | 2 | 165 | 0.0 | 0.0 | 0.00 | 0.00 | 0.00 | 97 | 1023.3 |
| 20260508105142 | 1 | 166 | 0.0 | 0.0 | 0.00 | 0.00 | 0.00 | 97 | 1023.3 |
| 20260508103936 | 1 | 167 | 0.0 | 0.0 | 0.00 | 0.00 | 0.00 | 97 | 1023.3 |
| 20260508103338 | 1 | 167 | 0.0 | 0.0 | 0.00 | 0.00 | 0.00 | 97 | 1023.0 |
| 20260508102715 | 1 | 159 | 0.0 | 0.0 | 0.00 | 0.00 | 0.00 | 97 | 1023.0 |
| 20260508102115 | 1 | 159 | 0.0 | 0.0 | 0.00 | 0.00 | 0.00 | 97 | 1023.0 |
| 20260508101512 | 1 | 172 | 0.0 | 0.0 | 0.00 | 0.00 | 0.00 | 97 | 1023.0 |
| 20260508100938 | 1 | 179 | 0.0 | 0.0 | 0.00 | 0.00 | 0.00 | 97 | 1023.0 |
| 20260508100331 | 1 | 165 | 0.0 | 0.0 | 0.00 | 0.00 | 0.00 | 97 | 1023.0 |
| 20260508095748 | 1 | 166 | 0.0 | 0.0 | 0.00 | 0.00 | 0.00 | 97 | 1023.0 |
| 20260508095130 | 2 | 162 | 0.0 | 0.0 | 0.00 | 0.00 | 0.00 | 97 | 1022.6 |
| 20260508094522 | 2 | 168 | 0.0 | 0.0 | 0.00 | 0.00 | 0.00 | 97 | 1022.6 |
| 20260508093943 | 2 | 169 | 0.0 | 0.0 | 0.00 | 0.00 | 0.00 | 97 | 1022.6 |
| 20260508092722 | 2 | 170 | 0.0 | 0.0 | 0.00 | 0.00 | 0.00 | 97 | 1023.0 |
| 20260508092142 | 2 | 166 | 0.0 | 0.0 | 0.00 | 0.00 | 0.00 | 97 | 1023.0 |
| 20260508091528 | 2 | 197 | 0.0 | 0.0 | 0.00 | 0.00 | 0.00 | 97 | 1023.0 |
| 20260508090932 | 2 | 205 | 0.0 | 0.0 | 0.00 | 0.00 | 0.00 | 97 | 1023.0 |
| 20260508085139 | 2 | 168 | 0.0 | 0.0 | 0.00 | 0.00 | 0.00 | 96 | 1022.6 |
| 20260508084547 | 2 | 163 | 0.0 | 0.0 | 0.00 | 0.00 | 0.00 | 96 | 1022.6 |
| 20260508083912 | 2 | 163 | 0.0 | 0.0 | 0.00 | 0.00 | 0.00 | 96 | 1022.6 |
| 20260508083313 | 2 | 167 | 0.0 | 0.0 | 0.00 | 0.00 | 0.00 | 96 | 1022.6 |
| 20260508082735 | 2 | 171 | 0.0 | 0.0 | 0.00 | 0.00 | 0.00 | 96 | 1022.6 |
| 20260508082150 | 2 | 163 | 0.0 | 0.0 | 0.00 | 0.00 | 0.00 | 96 | 1022.6 |
| 20260508081537 | 2 | 163 | 0.0 | 0.0 | 0.00 | 0.00 | 0.00 | 96 | 1022.3 |
| 20260508080328 | 2 | 168 | 0.0 | 0.0 | 0.00 | 0.00 | 0.00 | 96 | 1022.6 |
| 20260508075731 | 2 | 176 | 0.0 | 0.0 | 0.00 | 0.00 | 0.00 | 96 | 1022.6 |
| 20260508075120 | 2 | 171 | 0.0 | 0.0 | 0.00 | 0.00 | 0.00 | 96 | 1022.6 |
| 20260508074529 | 2 | 167 | 0.0 | 0.0 | 0.00 | 0.00 | 0.00 | 96 | 1022.6 |
| 20260508073327 | 2 | 166 | 0.0 | 0.0 | 0.00 | 0.00 | 0.00 | 96 | 1022.6 |
| 20260508072733 | 2 | 170 | 0.0 | 0.0 | 0.00 | 0.00 | 0.00 | 95 | 1022.6 |
| 20260508072115 | 3 | 170 | 0.0 | 0.0 | 0.00 | 0.00 | 0.00 | 95 | 1022.3 |
| 20260508071537 | 3 | 169 | 0.0 | 0.0 | 0.00 | 0.00 | 0.00 | 95 | 1022.6 |
| 20260508070951 | 3 | 178 | 0.0 | 0.0 | 0.00 | 0.00 | 0.00 | 95 | 1022.6 |
| 20260508070338 | 3 | 167 | 0.0 | 0.0 | 0.00 | 0.00 | 0.00 | 95 | 1022.6 |
| 20260508065738 | 3 | 159 | 0.0 | 0.0 | 0.00 | 0.00 | 0.00 | 95 | 1022.6 |
| 20260508065133 | 3 | 163 | 0.0 | 0.0 | 0.00 | 0.00 | 0.00 | 95 | 1022.6 |
| 20260508064520 | 3 | 174 | 0.0 | 0.0 | 0.00 | 0.00 | 0.00 | 94 | 1022.3 |
| 20260508063925 | 3 | 188 | 0.0 | 0.0 | 0.00 | 0.00 | 0.00 | 94 | 1022.3 |
| 20260508063318 | 3 | 184 | 0.0 | 0.0 | 0.00 | 0.00 | 0.00 | 94 | 1022.6 |
| 20260508062742 | 3 | 155 | 0.0 | 0.0 | 0.00 | 0.00 | 0.00 | 94 | 1022.6 |
| 20260508062146 | 3 | 219 | 0.0 | 0.0 | 0.00 | 0.00 | 0.00 | 93 | 1022.6 |
| 20260508061530 | 3 | 191 | 0.0 | 0.0 | 0.00 | 0.00 | 0.00 | 93 | 1022.6 |
| 20260508060909 | 3 | 162 | 0.0 | 0.0 | 0.00 | 0.00 | 0.00 | 93 | 1022.6 |
| 20260508060341 | 3 | 170 | 0.0 | 0.0 | 0.00 | 0.00 | 0.00 | 93 | 1022.6 |
| 20260508055751 | 3 | 172 | 0.0 | 0.0 | 0.00 | 0.00 | 0.00 | 92 | 1022.6 |
| 20260508055141 | 3 | 176 | 0.0 | 0.0 | 0.00 | 0.00 | 0.00 | 92 | 1022.6 |
| 20260508054544 | 3 | 171 | 0.0 | 0.0 | 0.00 | 0.00 | 0.00 | 92 | 1022.6 |
| 20260508052738 | 4 | 180 | 0.0 | 0.0 | 0.00 | 0.00 | 0.00 | 91 | 1022.6 |
| 20260508052132 | 4 | 171 | 0.0 | 0.0 | 0.00 | 0.00 | 0.00 | 91 | 1022.6 |
| 20260508051526 | 4 | 175 | 0.0 | 0.0 | 0.00 | 0.00 | 0.00 | 91 | 1022.6 |
| 20260508050945 | 4 | 172 | 0.0 | 0.0 | 0.00 | 0.00 | 0.00 | 91 | 1022.6 |
| 20260508050309 | 4 | 174 | 0.0 | 0.0 | 0.00 | 0.00 | 0.00 | 90 | 1022.6 |
| 20260508045724 | 4 | 167 | 0.0 | 0.0 | 0.00 | 0.00 | 0.00 | 90 | 1022.3 |
| 20260508045128 | 4 | 199 | 0.0 | 0.0 | 0.00 | 0.00 | 0.00 | 89 | 1022.6 |
| 20260508044542 | 5 | 176 | 0.0 | 0.0 | 0.00 | 0.00 | 0.00 | 89 | 1022.3 |
| 20260508043936 | 5 | 186 | 0.0 | 0.0 | 0.00 | 0.00 | 0.00 | 88 | 1022.6 |
| 20260508043347 | 5 | 163 | 0.0 | 0.0 | 0.00 | 0.00 | 0.00 | 88 | 1022.6 |
| 20260508042723 | 5 | 164 | 0.0 | 0.0 | 0.00 | 0.00 | 0.00 | 87 | 1022.6 |
| 20260508042141 | 5 | 165 | 0.0 | 0.0 | 0.00 | 0.00 | 0.00 | 87 | 1022.6 |
| 20260508041532 | 5 | 173 | 0.0 | 0.0 | 0.00 | 0.00 | 0.00 | 87 | 1022.6 |
| 20260508040318 | 5 | 163 | 0.0 | 0.0 | 0.00 | 0.00 | 0.00 | 86 | 1022.6 |
| 20260508035120 | 5 | 183 | 0.0 | 0.0 | 0.00 | 0.00 | 0.00 | 85 | 1022.6 |
| 20260508034526 | 6 | 202 | 0.0 | 0.0 | 0.00 | 0.00 | 0.00 | 84 | 1022.6 |
| 20260508033916 | 6 | 165 | 0.0 | 0.0 | 0.00 | 0.00 | 0.00 | 83 | 1022.6 |
| 20260508033321 | 6 | 174 | 0.0 | 0.0 | 0.00 | 0.00 | 0.00 | 83 | 1022.6 |
| 20260508032734 | 6 | 173 | 0.0 | 0.0 | 0.00 | 0.00 | 0.00 | 82 | 1022.6 |
| 20260508032147 | 6 | 172 | 0.0 | 0.0 | 0.00 | 0.00 | 0.00 | 82 | 1022.6 |
| 20260508031526 | 6 | 171 | 0.0 | 0.0 | 0.00 | 0.00 | 0.00 | 81 | 1022.6 |
| 20260508030931 | 6 | 176 | 0.0 | 0.0 | 0.00 | 0.00 | 0.00 | 80 | 1022.6 |
| 20260508030311 | 6 | 169 | 0.0 | 0.0 | 0.00 | 0.00 | 0.00 | 79 | 1022.6 |
| 20260508025719 | 7 | 174 | 0.0 | 0.0 | 0.00 | 0.00 | 0.00 | 79 | 1022.6 |
| 20260508025114 | 7 | 179 | 0.0 | 0.0 | 0.00 | 0.00 | 0.00 | 78 | 1022.3 |
| 20260508024525 | 7 | 174 | 0.0 | 0.0 | 0.00 | 0.00 | 0.00 | 77 | 1022.3 |
| 20260508023946 | 7 | 167 | 0.0 | 0.0 | 0.00 | 0.00 | 0.00 | 77 | 1022.3 |
| 20260508023341 | 7 | 180 | 0.0 | 0.0 | 0.00 | 0.00 | 0.00 | 76 | 1022.3 |
| 20260508022723 | 7 | 172 | 0.0 | 0.0 | 0.00 | 0.00 | 0.00 | 75 | 1022.3 |
| 20260508021515 | 8 | 164 | 0.0 | 0.0 | 0.00 | 0.00 | 0.00 | 72 | 1022.3 |
| 20260508020945 | 8 | 163 | 0.0 | 0.0 | 0.00 | 0.00 | 0.00 | 72 | 1022.0 |
| 20260508020349 | 8 | 162 | 0.0 | 0.0 | 0.00 | 0.00 | 0.00 | 70 | 1022.0 |
| 20260508015738 | 8 | 168 | 0.0 | 0.0 | 0.00 | 0.00 | 0.00 | 68 | 1022.0 |
| 20260508015145 | 9 | 161 | 0.0 | 0.0 | 0.00 | 0.00 | 0.00 | 68 | 1022.0 |
| 20260508014517 | 9 | 46 | 0.0 | 0.0 | 0.00 | 0.00 | 0.00 | 69 | 1021.6 |
| 20260508012725 | 9 | 284 | 3.2 | 4.8 | 0.00 | 0.00 | 0.00 | 72 | 1021.3 |
| 20260508011528 | 10 | 237 | 0.0 | 0.0 | 0.00 | 0.00 | 0.00 | 69 | 1021.3 |
| 20260508010935 | 10 | 210 | 3.2 | 3.2 | 0.00 | 0.00 | 0.00 | 68 | 1021.3 |
| 20260508010349 | 10 | 228 | 3.2 | 4.8 | 0.00 | 0.00 | 0.00 | 69 | 1020.9 |
| 20260508005736 | 10 | 291 | 3.2 | 4.8 | 0.00 | 0.00 | 0.00 | 67 | 1020.9 |
| 20260508003908 | 11 | 210 | 3.2 | 4.8 | 0.00 | 0.00 | 0.00 | 69 | 1020.9 |
| 20260508003340 | 11 | 195 | 0.0 | 4.8 | 0.00 | 0.00 | 0.00 | 66 | 1020.9 |
| 20260508002734 | 11 | 293 | 3.2 | 4.8 | 0.00 | 0.00 | 0.00 | 69 | 1020.9 |
| 20260508002110 | 11 | 299 | 3.2 | 4.8 | 0.00 | 0.00 | 0.00 | 67 | 1020.9 |
| 20260508001532 | 11 | 317 | 3.2 | 3.2 | 0.00 | 0.00 | 0.00 | 66 | 1020.6 |
| 20260508000949 | 12 | 222 | 1.6 | 1.6 | 0.00 | 0.00 | 0.00 | 64 | 1020.6 |
| 20260508000335 | 12 | 336 | 3.2 | 4.8 | 0.00 | 0.00 | 0.00 | 62 | 1020.6 |
| 20260507235747 | 12 | 158 | 0.0 | 4.8 | 0.00 | 0.00 | 0.00 | 58 | 1020.6 |
| 20260507235119 | 13 | 268 | 3.2 | 3.2 | 0.00 | 0.00 | 0.00 | 63 | 1020.6 |
| 20260507234551 | 13 | 149 | 0.0 | 3.2 | 0.00 | 0.00 | 0.00 | 59 | 1020.3 |
| 20260507233938 | 14 | 128 | 0.0 | 0.0 | 0.00 | 0.00 | 0.00 | 52 | 1020.3 |
| 20260507233347 | 14 | 115 | 3.2 | 8.0 | 0.00 | 0.00 | 0.00 | 53 | 1020.3 |
| 20260507231535 | 15 | 148 | 4.8 | 4.8 | 0.00 | 0.00 | 0.00 | 41 | 1020.3 |
| 20260507225744 | 16 | 166 | 4.8 | 4.8 | 0.00 | 0.00 | 0.00 | 38 | 1019.9 |
| 20260507225120 | 16 | 151 | 3.2 | 4.8 | 0.00 | 0.00 | 0.00 | 41 | 1020.3 |
| 20260507224527 | 16 | 194 | 1.6 | 1.6 | 0.00 | 0.00 | 0.00 | 38 | 1020.3 |
| 20260507223918 | 16 | 149 | 3.2 | 6.4 | 0.00 | 0.00 | 0.00 | 38 | 1020.3 |
| 20260507223338 | 16 | 172 | 4.8 | 6.4 | 0.00 | 0.00 | 0.00 | 40 | 1020.3 |
| 20260507222719 | 16 | 151 | 4.8 | 4.8 | 0.00 | 0.00 | 0.00 | 35 | 1020.3 |
| 20260507221516 | 17 | 203 | 8.0 | 8.0 | 0.00 | 0.00 | 0.00 | 35 | 1019.9 |
| 20260507220312 | 17 | 174 | 6.4 | 6.4 | 0.00 | 0.00 | 0.00 | 37 | 1019.9 |
| 20260507215738 | 17 | 320 | 9.7 | 9.7 | 0.00 | 0.00 | 0.00 | 37 | 1019.9 |
| 20260507215144 | 17 | 149 | 3.2 | 6.4 | 0.00 | 0.00 | 0.00 | 40 | 1019.9 |
| 20260507213944 | 17 | 167 | 1.6 | 6.4 | 0.00 | 0.00 | 0.00 | 37 | 1019.6 |
| 20260507212737 | 17 | 60 | 6.4 | 14.5 | 0.00 | 0.00 | 0.00 | 37 | 1019.6 |
| 20260507211532 | 18 | 117 | 6.4 | 9.7 | 0.00 | 0.00 | 0.00 | 37 | 1019.6 |
| 20260507210928 | 18 | 125 | 3.2 | 3.2 | 0.00 | 0.00 | 0.00 | 39 | 1019.3 |
| 20260507210344 | 17 | 240 | 9.7 | 16.1 | 0.00 | 0.00 | 0.00 | 35 | 1019.3 |
| 20260507204547 | 18 | 143 | 3.2 | 11.3 | 0.00 | 0.00 | 0.00 | 40 | 1019.3 |
| 20260507202737 | 17 | 161 | 3.2 | 12.9 | 0.00 | 0.00 | 0.00 | 41 | 1019.3 |
| 20260507202152 | 18 | 150 | 3.2 | 6.4 | 0.00 | 0.00 | 0.00 | 37 | 1019.3 |
| 20260507201538 | 18 | 214 | 8.0 | 9.7 | 0.00 | 0.00 | 0.00 | 40 | 1019.3 |
| 20260507200938 | 18 | 189 | 3.2 | 4.8 | 0.00 | 0.00 | 0.00 | 42 | 1019.3 |
| 20260507195752 | 18 | 127 | 4.8 | 8.0 | 0.00 | 0.00 | 0.00 | 37 | 1019.3 |
| 20260507195151 | 17 | 14 | 8.0 | 14.5 | 0.00 | 0.00 | 0.00 | 37 | 1019.3 |
| 20260507194514 | 17 | 156 | 4.8 | 12.9 | 0.00 | 0.00 | 0.00 | 39 | 1019.3 |
| 20260507193951 | 19 | 200 | 4.8 | 6.4 | 0.00 | 0.00 | 0.00 | 41 | 1019.3 |
| 20260507192732 | 17 | 209 | 8.0 | 14.5 | 0.00 | 0.00 | 0.00 | 40 | 1019.6 |
| 20260507192146 | 18 | 120 | 6.4 | 9.7 | 0.00 | 0.00 | 0.00 | 37 | 1019.6 |
| 20260507191535 | 17 | 196 | 3.2 | 8.0 | 0.00 | 0.00 | 0.00 | 38 | 1019.6 |
| 20260507190936 | 18 | 204 | 8.0 | 8.0 | 0.00 | 0.00 | 0.00 | 43 | 1019.6 |
| 20260507185724 | 18 | 199 | 6.4 | 14.5 | 0.00 | 0.00 | 0.00 | 44 | 1019.6 |
| 20260507185150 | 18 | 158 | 3.2 | 11.3 | 0.00 | 0.00 | 0.00 | 42 | 1019.9 |
| 20260507184549 | 17 | 181 | 3.2 | 14.5 | 0.00 | 0.00 | 0.00 | 56 | 1019.9 |
| 20260507183951 | 17 | 185 | 4.8 | 6.4 | 0.00 | 0.00 | 0.00 | 44 | 1019.9 |
| 20260507183308 | 17 | 198 | 9.7 | 9.7 | 0.00 | 0.00 | 0.00 | 45 | 1019.9 |
| 20260507182714 | 17 | 190 | 4.8 | 12.9 | 0.00 | 0.00 | 0.00 | 46 | 1019.9 |
| 20260507182150 | 18 | 199 | 4.8 | 11.3 | 0.00 | 0.00 | 0.00 | 43 | 1020.3 |
| 20260507181510 | 17 | 174 | 4.8 | 9.7 | 0.00 | 0.00 | 0.00 | 44 | 1019.9 |
| 20260507180927 | 16 | 142 | 6.4 | 6.4 | 0.00 | 0.00 | 0.00 | 50 | 1020.3 |
| 20260507180324 | 17 | 171 | 3.2 | 6.4 | 0.00 | 0.00 | 0.00 | 52 | 1020.3 |
| 20260507174520 | 17 | 183 | 0.0 | 6.4 | 0.00 | 0.00 | 0.00 | 47 | 1020.3 |
| 20260507173945 | 18 | 130 | 8.0 | 8.0 | 0.00 | 0.00 | 0.00 | 46 | 1020.3 |